Location: Hope
(40.9110°N, 74.9680°W)
Time: 01:26:32
(UTC-05:00)

N. Korean satellite - Pass Details

Date: 25 January 2019
Orbit: 457 x 510 km, 97.2° (Epoch: 16 February)

Event Time Altitude Azimuth Distance (km) Brightness Sun altitude
Rises 05:40:52 0° 22° (NNE) 2,605 10.4 -18.1°
Reaches altitude 10° 05:43:09 10° 33° (NNE) 1,708 9.6 -17.6°
Maximum altitude 05:46:27 31° 96° (E) 889 8.6 -17.0°
Drops below altitude 10° 05:49:40 10° 160° (SSE) 1,669 9.7 -16.4°
Sets 05:51:52 0° 171° (S) 2,534 10.5 -16.0°
